Aérodrome :
LOGIN :

S'inscrire | Disclaimer

   EN    FR    IT 

 










Légende :    VFR   VFR Marginal   IFR   IFR Intensif   IFR Très Intensif
Visi : 
Plafond : 
>= 8 km
>= 3000ft
5 à 8 km
1000 à 3000 ft
1500m à 5 km
500 à 1000 ft
800 à 1500m
200 à 500 ft
< 800m
< 200 ft
Symboles :   Orages  Brouillard  Fortes neiges  Fortes précipitations  Vent > 20 kt
SIGMETs :   Divers  Orages  Givrage  Turbulence  Onde Orograph.  Cendres Volcan.







- Altitude de l'aérodrome : 32 ft
- Code IATA : LKZ


EGUL - RAF Lakenheath

DERNIER METAR :
  • 260856Z AUTO 31005KT 9999 CLR 06/02 A3052 RMK AO2 SLP339 T00550023 53004 $

METARs EXPIRÉS :
  • 260756Z AUTO 28005KT 9999 CLR 03/01 A3051 RMK AO2 SLP335 T00290008 $
  • 260656Z AUTO 23005KT 9999 CLR 01/M01 A3051 RMK AO2 SLP335 T00131006 $

TAF AMD TAF EGUL
Valide du 26 à 09h jusqu'au 27 à 10h UTC


260938Z 2609/2710 31009KT 9999 SCT020 BKN030 QNH3043INS
BECMG 2622/2623 31005KT 9999 BKN030 620509 QNH3047INS
BECMG 2700/2701 29009KT 9999 BKN030 610509 QNH3048INS
BECMG 2708/2709 VRB05KT 9999 BKN030 610509 QNH3051INS TX11/2615Z TNM02/2706Z
Pas de NOTAMs connus pour ce terrain.



MET'MAP, la Météo Aéronautique d'un coup d'oeil ! - Copyright ORBIFLY Décembre 2007 - Disclaimer

ORBIFLY MET'MAP TEAM :

Programmation & Développement : Alexandra Zaïnal
Conception & Développement : Baudouin d'Aumeries
Co-Programmation & Développement : Marc-Olivier Méhu
Soutien technique & logistique : Manuel Goepfert

Contact : metmap@orbifly.com




SOURCES & CREDITS :

   NOAA